[[{"header":{"parameterUnit":"m.s-1","parameterCategory":1,"la1":30.2991,"la2":30.254,"lo1":-89.0895,"lo2":-89.0444,"dy":0.0017,"dx":0.0017,"nx":28,"ny":28,"refTime":"2025-09-11T03:00:00:Z","depth":0,"parameterNumber":2,"parameterNumberName":"U-component_of_WINDS"},"data":[0,0,0,0,0,0,0,0,0,0,0,0,0,0,0,0,0,0,0,0,0,0,0,0,0,0,0,0,0,0,0,0,0,0,0,0,0,0,0,0,0,0,0,0,0,0,0,0,0,0,0,0,0,0,0,0,0,0,0.5685,0.5686,0,0.5799,0.58,0.5802,0.5872,0.5872,0.5872,0.5873,0.5989,0.5992,0.5994,0,0,0,0,0,0,0,0,0,0,0,0,0,0.5525,0.5528,0.5685,0.5686,0.5688,0.5799,0.58,0.5802,0.5872,0.5872,0.5872,0.5873,0.5988,0.5991,0.5995,0,0,0,0,0,0,0,0,0,0,0,0,0,0.5612,0.5529,0.5684,0.5736,0.5742,0.5798,0.58,0.5802,0.5872,0.5872,0.5873,0.5873,0.5987,0.5991,0.5995,0.601,0,0,0.6008,0.601,0,0,0,0,0,0,0,0,0.5607,0.5618,0.5727,0.5732,0.5739,0.5822,0.5787,0.5872,0.5871,0.5822,0.5873,0.5873,0.5933,0.5941,0.5962,0.6015,0.602,0.6008,0.6011,0.6012,0.6014,0,0,0,0,0,0,0,0.5601,0.5614,0.573,0.5728,0.5736,0.5753,0.5766,0.5803,0.5873,0.5826,0.5832,0.5844,0.5936,0.5957,0.5965,0.6022,0.6008,0.6012,0.6014,0.6016,0.6091,0.6091,0,0,0,0,0,0,0.5587,0.5608,0.5726,0.5733,0.5673,0.5755,0.5769,0.5795,0.5873,0.5885,0.5844,0.5847,0.595,0.596,0.5969,0.599,0.6012,0.6016,0.6019,0.6092,0.6091,0.6091,0,0,0,0,0,0,0.5584,0.5597,0.5722,0.5672,0.5689,0.5757,0.5785,0.5796,0.5818,0.5886,0.5899,0.5853,0.5951,0.5963,0.5999,0.5995,0.6018,0.6022,0.6092,0.6092,0.6091,0.6033,0,0,0,0,0,0,0.5579,0.5595,0.5602,0.5672,0.5692,0.5749,0.5785,0.5798,0.5825,0.583,0.5898,0.5909,0.5952,0.5992,0.6003,0.6001,0.6025,0.6093,0.6092,0.6091,0.6035,0.603,0.6026,0,0,0,0,0,0.5573,0.5581,0.5602,0.5616,0.5702,0.5749,0.5761,0.581,0.5824,0.5831,0.5875,0.5907,0.5994,0.5995,0.6008,0.6007,0.6093,0.6092,0.6091,0.6037,0.6031,0.6026,0,0,0,0,0,0,0.5509,0.5592,0.5615,0.5647,0.569,0.5761,0.5771,0.5802,0.5842,0.5846,0.5905,0.592,0.5949,0.5982,0.5982,0.6025,0.6047,0.6049,0.6002,0.5997,0.5992,0.5983,0.6029,0,0,0,0,0,0.5499,0.5531,0.5601,0.5622,0.5643,0.5703,0.5726,0.576,0.5807,0.5826,0.5872,0.5917,0.5954,0.5977,0.6016,0.6041,0.6055,0.6046,0.6042,0.6037,0.6037,0.6051,0.6048,0.6087,0.6087,0.6087,0,0,0.5478,0.5527,0.5544,0.5611,0.5649,0.568,0.5718,0.575,0.5773,0.5831,0.5867,0.5902,0.5956,0.5985,0.6001,0.6014,0.603,0.6036,0.6032,0.6035,0.605,0.6046,0.6042,0.6086,0.6087,0.6087,0,0,0.5455,0.5496,0.5518,0.5554,0.5611,0.5651,0.5656,0.5721,0.5747,0.5784,0.5827,0.5856,0.5919,0.5955,0.5982,0.5971,0.6002,0.5982,0.5956,0.5969,0.5966,0.5964,0.5958,0.5956,0.5982,0.5982,0.5982,0,0.5422,0.5471,0.5524,0.5553,0.5581,0.5634,0.5655,0.5689,0.5755,0.5772,0.5786,0.5865,0.5906,0.5943,0.594,0.5961,0.5967,0.5974,0.5962,0.596,0.5959,0.5954,0.5952,0.5979,0.5979,0.598,0.598,0,0.5426,0.546,0.547,0.5532,0.5561,0.5586,0.5642,0.5664,0.5696,0.5734,0.577,0.582,0.5868,0.588,0.5911,0.5922,0.5928,0.5951,0.5975,0.5951,0.5948,0.5947,0.5975,0.5976,0.5977,0.5977,0,0,0.5367,0.5457,0.546,0.5488,0.5554,0.5581,0.5607,0.5655,0.5672,0.5716,0.5739,0.579,0.5812,0.5842,0.5878,0.5889,0.5875,0.5911,0.5913,0.5901,0.5888,0.5869,0.5866,0.5897,0.5897,0.5897,0.5883,0,0.5353,0.5404,0.5452,0.5485,0.5515,0.5566,0.5589,0.5632,0.5668,0.5698,0.5738,0.5773,0.58,0.5818,0.5832,0.5874,0.5873,0.5876,0.5917,0.5918,0.5901,0.5865,0.5845,0.5829,0.5882,0.5882,0.5882,0,0.5344,0.5384,0.542,0.5482,0.5496,0.5516,0.5562,0.5591,0.564,0.5665,0.5698,0.5735,0.5765,0.5786,0.5827,0.5827,0.5847,0.5871,0.5871,0.5876,0.5897,0.5866,0.5826,0.5823,0.5881,0.5881,0.5881,0,0.5294,0.5358,0.5388,0.541,0.5483,0.5496,0.5527,0.5576,0.5601,0.5641,0.5657,0.5701,0.5724,0.5756,0.5804,0.5815,0.5839,0.5865,0.586,0.5858,0.5862,0.5861,0.5822,0.5877,0.5877,0.5877,0.5877,0,0.5273,0.5292,0.5366,0.5384,0.5407,0.5462,0.5483,0.5518,0.5561,0.5586,0.5633,0.5655,0.5718,0.5748,0.5785,0.5812,0.5823,0.5843,0.5853,0.5838,0.5835,0.5851,0.5853,0.5876,0.5877,0.5877,0.5877,0,0.5221,0.5272,0.5307,0.5373,0.539,0.5403,0.546,0.5478,0.5517,0.5547,0.5558,0.5618,0.5655,0.5706,0.5759,0.5785,0.5806,0.5822,0.5789,0.5794,0.5786,0.5785,0.5754,0.5752,0.581,0.5809,0.5809,0,0.5203,0.5219,0.5287,0.5307,0.5336,0.5368,0.5393,0.5447,0.5471,0.5527,0.5539,0.5579,0.5615,0.5671,0.5719,0.576,0.5776,0.5763,0.5782,0.5767,0.5774,0.5771,0.5772,0.5757,0.5756,0.5756,0.5755,0,0.5165,0.5189,0.5224,0.5267,0.5295,0.5332,0.5371,0.5384,0.5447,0.5471,0.5509,0.5537,0.559,0.5629,0.5676,0.5707,0.5741,0.5748,0.5749,0.5733,0.5713,0.5722,0.5774,0.5749,0.5749,0.575,0.575,0.575,0.5129,0.5145,0.5194,0.5231,0.5266,0.53,0.532,0.5361,0.5394,0.5441,0.5472,0.5508,0.5555,0.5621,0.5651,0.5679,0.5693,0.5694,0.5695,0.5694,0.5688,0.5709,0.5688,0.5689,0.5689,0.5689,0.5689,0,0.5092,0.5126,0.5159,0.5211,0.524,0.5269,0.5313,0.5335,0.5366,0.5407,0.5441,0.5483,0.5521,0.5572,0.5613,0.5626,0.5643,0.5635,0.5634,0.564,0.5674,0.5668,0.5621,0.5621,0.5621,0.5621,0.5621,0.5621,0.5076,0.5104,0.5133,0.5178,0.5212,0.5248,0.527,0.5302,0.5335,0.538,0.5412,0.5445,0.549,0.5534,0.557,0.5584,0.5596,0.5583,0.5601,0.5632,0.5638,0.5644,0.5639,0.5586,0.5586,0.5565,0.5565,0.5565]},{"header":{"parameterUnit":"m.s-1","parameterCategory":1,"la1":30.2991,"la2":30.254,"lo1":-89.0895,"lo2":-89.0444,"dy":0.0017,"dx":0.0017,"nx":28,"ny":28,"refTime":"2025-09-11T03:00:00:Z","depth":0,"parameterNumber":3,"parameterNumberName":"V-component_of_WINDS"},"data":[0,0,0,0,0,0,0,0,0,0,0,0,0,0,0,0,0,0,0,0,0,0,0,0,0,0,0,0,0,0,0,0,0,0,0,0,0,0,0,0,0,0,0,0,0,0,0,0,0,0,0,0,0,0,0,0,0,0,3.049,3.049,0,3.0454,3.0453,3.0453,3.0421,3.0421,3.042,3.042,3.038,3.038,3.0379,0,0,0,0,0,0,0,0,0,0,0,0,0,3.053,3.053,3.049,3.049,3.049,3.0454,3.0453,3.0453,3.0421,3.0421,3.042,3.042,3.038,3.038,3.0379,0,0,0,0,0,0,0,0,0,0,0,0,0,3.0505,3.053,3.0491,3.0469,3.0467,3.0454,3.0453,3.0453,3.0421,3.0421,3.042,3.042,3.0381,3.038,3.0379,3.0383,0,0,3.0375,3.0375,0,0,0,0,0,0,0,0,3.0507,3.0504,3.0473,3.0471,3.0468,3.0441,3.0453,3.0429,3.0421,3.0439,3.042,3.0419,3.0401,3.0398,3.0392,3.0381,3.0379,3.0375,3.0375,3.0374,3.0374,0,0,0,0,0,0,0,3.0509,3.0505,3.0476,3.0473,3.047,3.0461,3.0457,3.0448,3.0423,3.0437,3.0435,3.0431,3.0399,3.0394,3.0391,3.0379,3.0375,3.0374,3.0374,3.0373,3.0367,3.0368,0,0,0,0,0,0,3.0514,3.0507,3.0477,3.0475,3.0487,3.0461,3.0456,3.0451,3.0423,3.0418,3.0431,3.0429,3.0396,3.0393,3.039,3.0391,3.0374,3.0373,3.0372,3.0367,3.0367,3.0368,0,0,0,0,0,0,3.0515,3.0512,3.0478,3.049,3.0485,3.0461,3.0455,3.045,3.0444,3.0419,3.0414,3.043,3.0395,3.0391,3.0385,3.039,3.0373,3.0372,3.0366,3.0367,3.0368,3.0396,0,0,0,0,0,0,3.0516,3.0512,3.0514,3.0491,3.0485,3.0475,3.0455,3.045,3.0443,3.044,3.0416,3.0412,3.0394,3.0386,3.0384,3.0388,3.0371,3.0366,3.0367,3.0367,3.0395,3.0398,3.04,0,0,0,0,0,3.0518,3.0523,3.0514,3.0511,3.0487,3.0475,3.0472,3.0452,3.0443,3.0444,3.0428,3.0413,3.039,3.0386,3.0382,3.0387,3.0365,3.0366,3.0367,3.0393,3.0397,3.04,0,0,0,0,0,0,3.0547,3.052,3.0509,3.0508,3.0494,3.047,3.0471,3.0457,3.0445,3.0443,3.0419,3.0414,3.0409,3.0397,3.0393,3.0389,3.0375,3.0376,3.0396,3.04,3.0403,3.0405,3.037,0,0,0,0,0,3.0554,3.0547,3.0523,3.0524,3.0518,3.0496,3.049,3.0476,3.0461,3.0454,3.0438,3.0423,3.0412,3.0405,3.0394,3.0393,3.0387,3.0394,3.0397,3.04,3.04,3.0397,3.04,3.0372,3.0372,3.0372,0,0,3.0566,3.055,3.0548,3.0529,3.0517,3.051,3.0491,3.0484,3.0479,3.0453,3.0446,3.0433,3.0415,3.041,3.0408,3.04,3.0407,3.0401,3.0403,3.0402,3.0399,3.0401,3.0404,3.0372,3.0372,3.0372,0,0,3.0585,3.0574,3.0572,3.0561,3.0543,3.0528,3.0528,3.0506,3.0497,3.0489,3.0469,3.0462,3.0445,3.0432,3.0423,3.0438,3.0423,3.0435,3.045,3.0448,3.045,3.0452,3.0455,3.0457,3.0436,3.0436,3.0436,0,3.0603,3.0593,3.0573,3.0568,3.056,3.0538,3.0535,3.0525,3.0504,3.0499,3.0491,3.0468,3.0454,3.0446,3.045,3.0444,3.0442,3.0437,3.0451,3.0453,3.0454,3.0458,3.0459,3.0437,3.0437,3.0437,3.0437,0,3.0615,3.0608,3.0609,3.059,3.0582,3.0578,3.0557,3.0552,3.0539,3.0525,3.0517,3.05,3.0484,3.0481,3.0469,3.0471,3.0467,3.0456,3.0442,3.0459,3.0461,3.0463,3.044,3.0439,3.0439,3.0438,0,0,3.065,3.0621,3.0622,3.0612,3.0591,3.0585,3.058,3.0566,3.0561,3.0547,3.0542,3.0528,3.0517,3.0507,3.0493,3.0491,3.0502,3.0479,3.0478,3.0483,3.0502,3.051,3.0512,3.0492,3.0493,3.0493,3.0503,0,3.0665,3.0655,3.0638,3.0633,3.0626,3.0605,3.06,3.0586,3.0573,3.0564,3.0549,3.0539,3.0527,3.052,3.0518,3.0501,3.0505,3.05,3.0485,3.0485,3.0489,3.0513,3.0522,3.0532,3.0504,3.0505,3.0505,0,3.068,3.0669,3.0664,3.0643,3.0639,3.0635,3.062,3.0613,3.0596,3.0587,3.0576,3.056,3.0553,3.0541,3.053,3.0527,3.052,3.0511,3.0511,3.0508,3.0495,3.0509,3.0535,3.0537,3.0506,3.0506,3.0506,0,3.0705,3.0688,3.0683,3.0676,3.0651,3.0649,3.0639,3.0622,3.0614,3.0601,3.0596,3.0582,3.0574,3.0563,3.0544,3.0537,3.0534,3.0521,3.0524,3.0525,3.0523,3.0524,3.0547,3.0522,3.0522,3.0522,3.0522,0,3.0722,3.0719,3.0693,3.069,3.0686,3.0666,3.0662,3.065,3.0635,3.0628,3.0609,3.0603,3.0579,3.0569,3.0554,3.0546,3.0543,3.0534,3.053,3.0535,3.0536,3.0529,3.0527,3.0522,3.0522,3.0522,3.0522,0,3.0748,3.0731,3.0723,3.0701,3.0696,3.0694,3.0674,3.067,3.0656,3.0647,3.0644,3.0622,3.0609,3.0589,3.0571,3.0561,3.0555,3.0549,3.0561,3.0558,3.0562,3.0562,3.0581,3.0582,3.0557,3.0558,3.0558,0,3.0759,3.0757,3.0735,3.0729,3.072,3.0711,3.0703,3.0684,3.0676,3.0657,3.0654,3.0641,3.0629,3.0611,3.0592,3.0578,3.057,3.0578,3.0568,3.0573,3.0568,3.0568,3.0567,3.058,3.058,3.0581,3.0581,0,3.0781,3.0772,3.0762,3.075,3.0741,3.073,3.0717,3.0714,3.0691,3.0683,3.0671,3.0662,3.0644,3.063,3.0613,3.0602,3.0587,3.0585,3.0584,3.0589,3.0595,3.059,3.0566,3.0584,3.0583,3.0583,3.0583,3.0583,3.0798,3.0795,3.0779,3.0769,3.0757,3.0746,3.0741,3.0727,3.0716,3.07,3.0689,3.0678,3.0661,3.0637,3.0626,3.0616,3.0609,3.0609,3.0609,3.0609,3.061,3.0598,3.0613,3.0612,3.0612,3.0612,3.0612,0,3.0818,3.0807,3.0797,3.0781,3.0772,3.0761,3.0747,3.074,3.073,3.0716,3.0705,3.0691,3.0678,3.0658,3.0643,3.0639,3.0632,3.0635,3.0635,3.0632,3.0617,3.0619,3.0641,3.0641,3.0641,3.0641,3.0641,3.0641,3.0827,3.082,3.081,3.0797,3.0786,3.0775,3.0768,3.0757,3.0746,3.0731,3.072,3.0708,3.0691,3.0675,3.0662,3.0657,3.0651,3.0657,3.0649,3.0636,3.0633,3.0631,3.0631,3.0657,3.0657,3.0665,3.0665,3.0665]}]]